Location: Dannhausen
(51.8650°N, 10.1026°E)
Time: 02:07:56
(UTC+00:00)

Cosmos 2233 Rocket - Pass Details

Date: 16 August 2020
Orbit: 952 x 992 km, 82.9° (Epoch: 26 September)

Event Time Altitude Azimuth Distance (km) Brightness Sun altitude
Exits shadow 22:58:07 24° 238° (WSW) 1,947 5.3 -24.6°
Maximum altitude 23:01:24 40° 291° (WNW) 1,439 5.0 -24.6°
Drops below altitude 10° 23:07:20 10° 360° (N) 2,762 7.4 -24.7°
Sets 23:10:03 0° 8° (N) 3,711 8.4 -24.7°
